| time (UTC) | temp F | wind direction | speed MPH | gust MPH | rain 1hr in | rain 24hr in | rain mn in | humidity % | barometer mb |
| 20260508094521 | 44 | 302 | 0.0 | 0.0 | 0.00 | 0.00 | 0.00 | 79 | 1013.0 |
| 20260508094010 | 45 | 302 | 0.0 | 0.0 | 0.00 | 0.00 | 0.00 | 79 | 1013.0 |
| 20260508093509 | 45 | 302 | 0.0 | 0.0 | 0.00 | 0.00 | 0.00 | 78 | 1012.9 |
| 20260508093025 | 45 | 302 | 0.0 | 0.0 | 0.00 | 0.00 | 0.00 | 78 | 1012.9 |
| 20260508092509 | 46 | 303 | 0.0 | 0.0 | 0.00 | 0.00 | 0.00 | 77 | 1012.8 |
| 20260508092009 | 46 | 303 | 0.0 | 0.0 | 0.00 | 0.00 | 0.00 | 77 | 1012.8 |
| 20260508091525 | 46 | 303 | 0.0 | 0.0 | 0.00 | 0.00 | 0.00 | 76 | 1012.8 |
| 20260508091006 | 47 | 303 | 0.0 | 0.0 | 0.00 | 0.00 | 0.00 | 75 | 1012.7 |
| 20260508090509 | 47 | 303 | 0.0 | 2.0 | 0.00 | 0.00 | 0.00 | 75 | 1012.4 |
| 20260508090030 | 47 | 303 | 0.0 | 2.0 | 0.00 | 0.00 | 0.00 | 74 | 1012.4 |
| 20260508085506 | 47 | 302 | 0.0 | 1.0 | 0.00 | 0.00 | 0.00 | 75 | 1012.4 |
| 20260508085008 | 47 | 302 | 0.0 | 3.0 | 0.00 | 0.00 | 0.00 | 74 | 1012.3 |
| 20260508084525 | 48 | 302 | 0.0 | 3.0 | 0.00 | 0.01 | 0.00 | 74 | 1012.2 |
| 20260508084006 | 48 | 307 | 1.0 | 3.0 | 0.00 | 0.01 | 0.00 | 73 | 1012.2 |
| 20260508083506 | 48 | 296 | 0.0 | 3.0 | 0.00 | 0.01 | 0.00 | 73 | 1012.2 |
| 20260508083021 | 48 | 303 | 1.0 | 4.0 | 0.00 | 0.01 | 0.00 | 72 | 1012.2 |
| 20260508082510 | 48 | 295 | 0.0 | 4.0 | 0.00 | 0.01 | 0.00 | 71 | 1012.1 |
| 20260508082008 | 48 | 292 | 1.0 | 6.0 | 0.00 | 0.01 | 0.00 | 71 | 1012.1 |
| 20260508081525 | 49 | 307 | 2.0 | 6.0 | 0.00 | 0.01 | 0.00 | 70 | 1012.2 |
| 20260508081009 | 49 | 291 | 2.0 | 6.0 | 0.00 | 0.01 | 0.00 | 70 | 1012.2 |
| 20260508080507 | 49 | 308 | 2.0 | 5.0 | 0.00 | 0.01 | 0.00 | 69 | 1012.0 |
| 20260508080027 | 49 | 305 | 0.0 | 7.0 | 0.00 | 0.01 | 0.00 | 70 | 1011.9 |
| 20260508075511 | 49 | 305 | 2.0 | 7.0 | 0.00 | 0.01 | 0.00 | 69 | 1011.8 |
| 20260508075010 | 49 | 274 | 0.0 | 5.0 | 0.00 | 0.01 | 0.00 | 70 | 1011.8 |
| 20260508074518 | 49 | 314 | 2.0 | 5.0 | 0.00 | 0.01 | 0.00 | 69 | 1011.7 |
| 20260508074006 | 49 | 302 | 0.0 | 3.0 | 0.00 | 0.01 | 0.00 | 70 | 1011.7 |
| 20260508073505 | 49 | 296 | 0.0 | 4.0 | 0.00 | 0.01 | 0.00 | 70 | 1011.5 |
| 20260508073020 | 50 | 304 | 0.0 | 4.0 | 0.00 | 0.01 | 0.00 | 70 | 1011.2 |
| 20260508072508 | 50 | 303 | 1.0 | 4.0 | 0.00 | 0.01 | 0.00 | 69 | 1010.9 |
| 20260508072012 | 50 | 290 | 1.0 | 4.0 | 0.00 | 0.01 | 0.00 | 69 | 1010.8 |
| 20260508071524 | 50 | 314 | 2.0 | 4.0 | 0.00 | 0.01 | 0.00 | 69 | 1010.7 |
| 20260508071009 | 50 | 310 | 2.0 | 11.0 | 0.00 | 0.01 | 0.00 | 69 | 1010.6 |
| 20260508070508 | 50 | 302 | 5.0 | 11.0 | 0.00 | 0.02 | 0.00 | 69 | 1010.4 |
| 20260508070018 | 50 | 297 | 1.0 | 7.0 | 0.00 | 0.02 | 0.00 | 70 | 1010.3 |
| 20260508065503 | 50 | 329 | 2.0 | 7.0 | 0.00 | 0.02 | 0.00 | 70 | 1010.0 |
| 20260508065007 | 50 | 306 | 2.0 | 7.0 | 0.00 | 0.02 | 0.00 | 71 | 1010.1 |
| 20260508064513 | 50 | 302 | 1.0 | 6.0 | 0.00 | 0.02 | 0.00 | 73 | 1010.3 |
| 20260508064007 | 50 | 295 | 2.0 | 5.0 | 0.00 | 0.03 | 0.00 | 74 | 1010.3 |
| 20260508063509 | 50 | 325 | 0.0 | 5.0 | 0.00 | 0.03 | 0.00 | 78 | 1010.1 |
| 20260508063025 | 50 | 306 | 3.0 | 8.0 | 0.00 | 0.03 | 0.00 | 79 | 1010.1 |
| 20260508062507 | 50 | 299 | 3.0 | 8.0 | 0.00 | 0.03 | 0.00 | 81 | 1009.9 |
| 20260508062009 | 49 | 322 | 2.0 | 5.0 | 0.00 | 0.04 | 0.00 | 85 | 1010.0 |
| 20260508061524 | 49 | 299 | 0.0 | 4.0 | 0.00 | 0.04 | 0.00 | 88 | 1010.2 |
| 20260508061009 | 48 | 278 | 0.0 | 0.0 | 0.00 | 0.05 | 0.00 | 89 | 1010.1 |
| 20260508060512 | 48 | 278 | 0.0 | 0.0 | 0.00 | 0.09 | 0.00 | 89 | 1010.2 |
| 20260508060024 | 47 | 278 | 0.0 | 0.0 | 0.00 | 0.12 | 0.00 | 88 | 1009.9 |
| 20260508055509 | 47 | 278 | 0.0 | 0.0 | 0.00 | 0.16 | 0.00 | 88 | 1009.8 |
| 20260508055010 | 46 | 278 | 0.0 | 0.0 | 0.00 | 0.18 | 0.00 | 88 | 1009.7 |
| 20260508054513 | 46 | 278 | 0.0 | 0.0 | 0.00 | 0.18 | 0.00 | 88 | 1009.6 |
| 20260508054006 | 46 | 278 | 0.0 | 0.0 | 0.00 | 0.18 | 0.00 | 88 | 1009.7 |
| 20260508053505 | 46 | 278 | 0.0 | 0.0 | 0.00 | 0.18 | 0.00 | 88 | 1009.6 |
| 20260508053017 | 46 | 278 | 0.0 | 0.0 | 0.00 | 0.18 | 0.00 | 87 | 1009.6 |
| 20260508052509 | 46 | 278 | 0.0 | 0.0 | 0.00 | 0.18 | 0.00 | 87 | 1009.7 |
| 20260508052009 | 46 | 278 | 0.0 | 0.0 | 0.00 | 0.18 | 0.00 | 88 | 1009.7 |
| 20260508051523 | 46 | 278 | 0.0 | 0.0 | 0.00 | 0.18 | 0.00 | 88 | 1009.8 |
| 20260508051007 | 46 | 278 | 0.0 | 0.0 | 0.00 | 0.18 | 0.00 | 88 | 1009.8 |
| 20260508050508 | 46 | 278 | 0.0 | 0.0 | 0.00 | 0.18 | 0.00 | 88 | 1009.9 |
| 20260508050027 | 46 | 278 | 0.0 | 0.0 | 0.00 | 0.18 | 0.00 | 88 | 1010.0 |
| 20260508045509 | 45 | 276 | 0.0 | 0.0 | 0.00 | 0.18 | 0.00 | 88 | 1010.0 |
| 20260508045010 | 45 | 276 | 0.0 | 0.0 | 0.00 | 0.18 | 0.00 | 87 | 1009.9 |
| 20260508044528 | 45 | 276 | 0.0 | 0.0 | 0.00 | 0.18 | 0.00 | 87 | 1009.8 |
| 20260508044009 | 45 | 276 | 0.0 | 0.0 | 0.00 | 0.18 | 0.00 | 87 | 1009.7 |
| 20260508043503 | 45 | 276 | 0.0 | 0.0 | 0.00 | 0.18 | 0.00 | 87 | 1009.7 |
| 20260508043020 | 45 | 276 | 0.0 | 0.0 | 0.00 | 0.18 | 0.00 | 86 | 1009.7 |
| 20260508042508 | 45 | 276 | 0.0 | 0.0 | 0.00 | 0.18 | 0.00 | 86 | 1009.7 |
| 20260508042008 | 46 | 276 | 0.0 | 0.0 | 0.00 | 0.18 | 0.00 | 86 | 1009.6 |
| 20260508041518 | 46 | 276 | 0.0 | 0.0 | 0.00 | 0.18 | 0.00 | 85 | 1009.6 |
| 20260508041007 | 46 | 276 | 0.0 | 0.0 | 0.00 | 0.18 | 0.00 | 85 | 1009.6 |
| 20260508040507 | 46 | 276 | 0.0 | 0.0 | 0.00 | 0.18 | 0.00 | 85 | 1009.6 |
| 20260508040027 | 46 | 276 | 0.0 | 0.0 | 0.00 | 0.18 | 0.00 | 84 | 1009.6 |
| 20260508035509 | 47 | 275 | 0.0 | 0.0 | 0.00 | 0.18 | 0.18 | 84 | 1009.8 |
| 20260508035009 | 47 | 276 | 0.0 | 0.0 | 0.00 | 0.18 | 0.18 | 84 | 1009.7 |
| 20260508034524 | 47 | 275 | 0.0 | 0.0 | 0.00 | 0.18 | 0.18 | 84 | 1009.7 |
| 20260508034012 | 47 | 276 | 0.0 | 0.0 | 0.00 | 0.18 | 0.18 | 84 | 1009.7 |
| 20260508033512 | 47 | 276 | 0.0 | 0.0 | 0.00 | 0.18 | 0.18 | 83 | 1009.7 |
| 20260508033025 | 48 | 276 | 0.0 | 0.0 | 0.00 | 0.19 | 0.18 | 83 | 1009.6 |
| 20260508032511 | 48 | 276 | 0.0 | 0.0 | 0.00 | 0.19 | 0.18 | 82 | 1009.6 |
| 20260508032007 | 48 | 276 | 0.0 | 0.0 | 0.00 | 0.19 | 0.18 | 82 | 1009.6 |
| 20260508031521 | 48 | 276 | 0.0 | 0.0 | 0.00 | 0.19 | 0.18 | 82 | 1009.6 |
| 20260508031008 | 49 | 276 | 0.0 | 0.0 | 0.00 | 0.19 | 0.18 | 81 | 1009.4 |
| 20260508030507 | 49 | 275 | 0.0 | 0.0 | 0.00 | 0.19 | 0.18 | 79 | 1009.5 |
| 20260508030038 | 49 | 275 | 0.0 | 0.0 | 0.00 | 0.19 | 0.18 | 79 | 1009.6 |
| 20260508025508 | 49 | 275 | 0.0 | 0.0 | 0.00 | 0.20 | 0.18 | 79 | 1009.7 |
| 20260508025007 | 50 | 275 | 0.0 | 0.0 | 0.00 | 0.20 | 0.18 | 78 | 1009.7 |
| 20260508024529 | 50 | 275 | 0.0 | 0.0 | 0.00 | 0.20 | 0.18 | 77 | 1009.8 |
| 20260508024009 | 50 | 275 | 0.0 | 0.0 | 0.00 | 0.21 | 0.18 | 77 | 1009.8 |
| 20260508023510 | 51 | 275 | 0.0 | 0.0 | 0.00 | 0.21 | 0.18 | 76 | 1009.9 |
| 20260508023025 | 51 | 275 | 0.0 | 0.0 | 0.00 | 0.21 | 0.18 | 75 | 1009.9 |
| 20260508022513 | 51 | 275 | 0.0 | 0.0 | 0.00 | 0.21 | 0.18 | 75 | 1009.9 |
| 20260508022012 | 52 | 275 | 0.0 | 0.0 | 0.00 | 0.21 | 0.18 | 74 | 1009.9 |
| 20260508021527 | 52 | 275 | 0.0 | 0.0 | 0.00 | 0.21 | 0.18 | 73 | 1009.9 |
| 20260508021009 | 52 | 275 | 0.0 | 0.0 | 0.00 | 0.21 | 0.18 | 73 | 1009.8 |
| 20260508020504 | 53 | 275 | 0.0 | 0.0 | 0.00 | 0.21 | 0.18 | 71 | 1009.8 |
| 20260508020017 | 53 | 275 | 0.0 | 0.0 | 0.00 | 0.21 | 0.18 | 71 | 1009.7 |
| 20260508015507 | 53 | 275 | 0.0 | 0.0 | 0.00 | 0.21 | 0.18 | 70 | 1009.8 |
| 20260508015006 | 53 | 275 | 0.0 | 0.0 | 0.00 | 0.21 | 0.18 | 70 | 1009.7 |
| 20260508014521 | 54 | 275 | 0.0 | 0.0 | 0.00 | 0.21 | 0.18 | 69 | 1009.7 |
| 20260508014007 | 54 | 275 | 0.0 | 0.0 | 0.00 | 0.21 | 0.18 | 68 | 1009.5 |
| 20260508013514 | 54 | 275 | 0.0 | 0.0 | 0.00 | 0.21 | 0.18 | 67 | 1009.4 |
| 20260508013024 | 54 | 275 | 0.0 | 0.0 | 0.00 | 0.21 | 0.18 | 67 | 1009.5 |
| 20260508012513 | 55 | 275 | 0.0 | 1.0 | 0.00 | 0.21 | 0.18 | 67 | 1009.4 |
| 20260508012007 | 55 | 257 | 0.0 | 1.0 | 0.00 | 0.21 | 0.18 | 67 | 1009.4 |
| 20260508011526 | 55 | 265 | 0.0 | 1.0 | 0.00 | 0.21 | 0.18 | 66 | 1009.4 |
| 20260508011007 | 55 | 281 | 0.0 | 1.0 | 0.00 | 0.21 | 0.18 | 66 | 1009.3 |
| 20260508010507 | 56 | 284 | 0.0 | 1.0 | 0.00 | 0.21 | 0.18 | 65 | 1009.3 |
| 20260508010028 | 56 | 289 | 0.0 | 2.0 | 0.00 | 0.21 | 0.18 | 64 | 1009.3 |
| 20260508005508 | 56 | 260 | 0.0 | 2.0 | 0.00 | 0.21 | 0.18 | 63 | 1009.2 |
| 20260508005008 | 56 | 252 | 0.0 | 1.0 | 0.00 | 0.21 | 0.18 | 63 | 1009.2 |
| 20260508004527 | 56 | 275 | 0.0 | 1.0 | 0.00 | 0.21 | 0.18 | 62 | 1009.2 |
| 20260508004013 | 56 | 262 | 0.0 | 1.0 | 0.00 | 0.21 | 0.18 | 60 | 1009.2 |
| 20260508003507 | 56 | 262 | 0.0 | 1.0 | 0.00 | 0.21 | 0.18 | 57 | 1009.0 |
| 20260508003026 | 57 | 306 | 0.0 | 1.0 | 0.00 | 0.21 | 0.18 | 54 | 1009.0 |
| 20260508002508 | 57 | 302 | 0.0 | 0.0 | 0.00 | 0.21 | 0.18 | 51 | 1008.8 |
| 20260508002010 | 58 | 302 | 0.0 | 0.0 | 0.00 | 0.21 | 0.18 | 50 | 1008.7 |
| 20260508001529 | 58 | 302 | 0.0 | 0.0 | 0.00 | 0.21 | 0.18 | 46 | 1008.5 |
| 20260508001010 | 59 | 302 | 0.0 | 0.0 | 0.00 | 0.21 | 0.18 | 43 | 1008.5 |
| 20260508000514 | 59 | 302 | 0.0 | 0.0 | 0.00 | 0.21 | 0.18 | 39 | 1008.5 |
| 20260508000027 | 60 | 302 | 0.0 | 0.0 | 0.00 | 0.21 | 0.18 | 38 | 1008.5 |
| 20260507235509 | 60 | 302 | 0.0 | 0.0 | 0.00 | 0.21 | 0.18 | 37 | 1008.4 |
| 20260507235010 | 61 | 302 | 0.0 | 0.0 | 0.00 | 0.21 | 0.18 | 37 | 1008.4 |
| 20260507234523 | 61 | 302 | 0.0 | 0.0 | 0.00 | 0.21 | 0.18 | 36 | 1008.3 |
| 20260507234007 | 61 | 302 | 0.0 | 1.0 | 0.00 | 0.21 | 0.18 | 35 | 1008.2 |
| 20260507233507 | 61 | 302 | 0.0 | 1.0 | 0.00 | 0.21 | 0.18 | 36 | 1008.3 |
| 20260507233026 | 62 | 302 | 0.0 | 1.0 | 0.00 | 0.21 | 0.18 | 35 | 1008.2 |
| 20260507232509 | 62 | 302 | 0.0 | 2.0 | 0.00 | 0.21 | 0.18 | 34 | 1008.0 |
| 20260507232011 | 62 | 300 | 0.0 | 2.0 | 0.00 | 0.21 | 0.18 | 34 | 1008.0 |
| 20260507231529 | 62 | 300 | 1.0 | 2.0 | 0.00 | 0.21 | 0.18 | 33 | 1008.0 |
| 20260507231007 | 62 | 308 | 0.0 | 2.0 | 0.00 | 0.21 | 0.18 | 34 | 1008.0 |
| 20260507230510 | 63 | 288 | 0.0 | 4.0 | 0.00 | 0.21 | 0.18 | 36 | 1008.1 |
| 20260507230029 | 63 | 309 | 0.0 | 4.0 | 0.00 | 0.21 | 0.18 | 33 | 1008.1 |
| 20260507225512 | 63 | 310 | 0.0 | 3.0 | 0.00 | 0.21 | 0.18 | 33 | 1008.0 |
| 20260507225010 | 63 | 309 | 0.0 | 3.0 | 0.00 | 0.21 | 0.18 | 33 | 1007.9 |
| 20260507224526 | 63 | 303 | 0.0 | 3.0 | 0.00 | 0.21 | 0.18 | 33 | 1008.0 |
| 20260507224008 | 63 | 305 | 1.0 | 3.0 | 0.00 | 0.21 | 0.18 | 32 | 1007.9 |
| 20260507223508 | 63 | 301 | 0.0 | 4.0 | 0.00 | 0.21 | 0.18 | 36 | 1008.0 |
| 20260507223022 | 63 | 298 | 2.0 | 4.0 | 0.00 | 0.21 | 0.18 | 31 | 1008.0 |
| 20260507222511 | 64 | 296 | 2.0 | 4.0 | 0.00 | 0.21 | 0.18 | 32 | 1008.0 |
| 20260507222011 | 64 | 299 | 0.0 | 4.0 | 0.00 | 0.21 | 0.18 | 34 | 1008.0 |
| 20260507221527 | 65 | 292 | 0.0 | 1.0 | 0.00 | 0.21 | 0.18 | 34 | 1007.9 |
| 20260507221009 | 65 | 292 | 0.0 | 3.0 | 0.00 | 0.21 | 0.18 | 35 | 1008.0 |
| 20260507220503 | 65 | 293 | 0.0 | 3.0 | 0.00 | 0.21 | 0.18 | 34 | 1007.9 |
| 20260507220013 | 65 | 263 | 1.0 | 4.0 | 0.00 | 0.21 | 0.18 | 33 | 1008.0 |
| 20260507215503 | 65 | 250 | 1.0 | 4.0 | 0.00 | 0.21 | 0.18 | 32 | 1008.0 |
| 20260507215005 | 65 | 297 | 0.0 | 3.0 | 0.00 | 0.21 | 0.18 | 32 | 1008.0 |
| 20260507214519 | 66 | 263 | 1.0 | 3.0 | 0.00 | 0.21 | 0.18 | 32 | 1008.0 |
| 20260507214007 | 66 | 221 | 1.0 | 4.0 | 0.00 | 0.21 | 0.18 | 32 | 1008.1 |
| 20260507213506 | 66 | 262 | 1.0 | 4.0 | 0.00 | 0.21 | 0.18 | 33 | 1008.0 |
| 20260507213022 | 66 | 243 | 2.0 | 3.0 | 0.00 | 0.21 | 0.18 | 32 | 1007.9 |
| 20260507212505 | 66 | 263 | 1.0 | 3.0 | 0.00 | 0.21 | 0.18 | 32 | 1007.9 |
| 20260507212011 | 65 | 269 | 1.0 | 4.0 | 0.00 | 0.21 | 0.18 | 36 | 1007.8 |
| 20260507211524 | 65 | 230 | 2.0 | 4.0 | 0.00 | 0.21 | 0.18 | 32 | 1007.8 |
| 20260507211009 | 65 | 308 | 0.0 | 4.0 | 0.00 | 0.21 | 0.18 | 33 | 1007.8 |
| 20260507210502 | 65 | 221 | 1.0 | 3.0 | 0.00 | 0.21 | 0.18 | 34 | 1007.8 |
| 20260507210011 | 65 | 258 | 1.0 | 3.0 | 0.00 | 0.21 | 0.18 | 33 | 1007.8 |
| 20260507205506 | 65 | 261 | 1.0 | 7.0 | 0.00 | 0.21 | 0.18 | 33 | 1007.7 |
| 20260507205009 | 65 | 283 | 0.0 | 7.0 | 0.00 | 0.21 | 0.18 | 35 | 1007.7 |
| 20260507204516 | 65 | 307 | 1.0 | 3.0 | 0.00 | 0.21 | 0.18 | 35 | 1007.8 |
| 20260507204006 | 65 | 265 | 1.0 | 3.0 | 0.00 | 0.21 | 0.18 | 33 | 1007.7 |
| 20260507203507 | 65 | 259 | 1.0 | 3.0 | 0.00 | 0.21 | 0.18 | 33 | 1007.8 |
| 20260507203020 | 65 | 266 | 1.0 | 3.0 | 0.00 | 0.21 | 0.18 | 34 | 1007.9 |
| 20260507202509 | 64 | 259 | 0.0 | 0.0 | 0.00 | 0.21 | 0.18 | 34 | 1007.9 |
| 20260507202009 | 64 | 283 | 0.0 | 0.0 | 0.00 | 0.21 | 0.18 | 35 | 1007.9 |
| 20260507201528 | 63 | 299 | 0.0 | 1.0 | 0.00 | 0.21 | 0.18 | 36 | 1008.0 |
| 20260507201009 | 63 | 276 | 0.0 | 1.0 | 0.00 | 0.21 | 0.18 | 34 | 1008.0 |
| 20260507200510 | 64 | 269 | 0.0 | 2.0 | 0.00 | 0.21 | 0.18 | 36 | 1008.0 |
| 20260507200026 | 64 | 267 | 0.0 | 2.0 | 0.00 | 0.21 | 0.18 | 38 | 1008.1 |
| 20260507195503 | 64 | 272 | 1.0 | 5.0 | 0.00 | 0.21 | 0.18 | 34 | 1008.2 |
| 20260507195003 | 64 | 263 | 1.0 | 5.0 | 0.00 | 0.21 | 0.18 | 34 | 1008.2 |
| 20260507194511 | 63 | 304 | 1.0 | 7.0 | 0.00 | 0.21 | 0.18 | 35 | 1008.2 |
| 20260507194007 | 63 | 303 | 1.0 | 7.0 | 0.00 | 0.21 | 0.18 | 36 | 1008.2 |
| 20260507193506 | 63 | 301 | 1.0 | 7.0 | 0.00 | 0.21 | 0.18 | 33 | 1008.3 |
| 20260507193025 | 63 | 217 | 3.0 | 7.0 | 0.00 | 0.21 | 0.18 | 34 | 1008.3 |
| 20260507192508 | 63 | 284 | 1.0 | 6.0 | 0.00 | 0.21 | 0.18 | 33 | 1008.4 |
| 20260507192009 | 63 | 218 | 3.0 | 6.0 | 0.00 | 0.21 | 0.18 | 36 | 1008.5 |
| 20260507191524 | 63 | 302 | 0.0 | 7.0 | 0.00 | 0.21 | 0.18 | 34 | 1008.5 |
| 20260507191005 | 63 | 302 | 2.0 | 7.0 | 0.00 | 0.21 | 0.18 | 37 | 1008.6 |
| 20260507190509 | 63 | 307 | 1.0 | 4.0 | 0.00 | 0.21 | 0.18 | 33 | 1008.6 |
| 20260507190023 | 63 | 282 | 0.0 | 5.0 | 0.00 | 0.21 | 0.18 | 36 | 1008.7 |
| 20260507185511 | 62 | 299 | 1.0 | 5.0 | 0.00 | 0.21 | 0.18 | 36 | 1008.6 |
| 20260507185009 | 62 | 261 | 2.0 | 8.0 | 0.00 | 0.21 | 0.18 | 35 | 1008.8 |
| 20260507184528 | 62 | 311 | 2.0 | 8.0 | 0.00 | 0.21 | 0.18 | 39 | 1008.8 |
| 20260507184004 | 61 | 293 | 0.0 | 3.0 | 0.00 | 0.21 | 0.18 | 36 | 1008.9 |
| 20260507183503 | 62 | 273 | 1.0 | 6.0 | 0.00 | 0.21 | 0.18 | 35 | 1009.0 |
| 20260507183025 | 62 | 311 | 0.0 | 6.0 | 0.00 | 0.21 | 0.18 | 37 | 1009.0 |
| 20260507182508 | 62 | 310 | 3.0 | 6.0 | 0.00 | 0.21 | 0.18 | 35 | 1009.1 |
| 20260507182008 | 62 | 272 | 1.0 | 5.0 | 0.00 | 0.21 | 0.18 | 37 | 1009.0 |
| 20260507181521 | 62 | 304 | 3.0 | 5.0 | 0.00 | 0.21 | 0.18 | 36 | 1009.0 |
| 20260507181009 | 62 | 297 | 0.0 | 4.0 | 0.00 | 0.21 | 0.18 | 37 | 1009.0 |
| 20260507180506 | 62 | 302 | 1.0 | 7.0 | 0.00 | 0.21 | 0.18 | 37 | 1009.2 |
| 20260507180024 | 62 | 288 | 3.0 | 7.0 | 0.00 | 0.21 | 0.18 | 36 | 1009.3 |
| 20260507175506 | 62 | 250 | 1.0 | 3.0 | 0.00 | 0.21 | 0.18 | 38 | 1009.4 |
| 20260507175009 | 62 | 263 | 0.0 | 4.0 | 0.00 | 0.21 | 0.18 | 38 | 1009.5 |
| 20260507174531 | 62 | 257 | 1.0 | 4.0 | 0.00 | 0.21 | 0.18 | 39 | 1009.5 |
| 20260507174011 | 62 | 254 | 1.0 | 4.0 | 0.00 | 0.21 | 0.18 | 37 | 1009.6 |
| 20260507173510 | 62 | 221 | 2.0 | 4.0 | 0.00 | 0.21 | 0.18 | 36 | 1009.6 |
| 20260507173011 | 61 | 259 | 0.0 | 5.0 | 0.00 | 0.21 | 0.18 | 38 | 1009.6 |
| 20260507172507 | 61 | 246 | 1.0 | 6.0 | 0.00 | 0.21 | 0.18 | 36 | 1009.7 |
| 20260507172007 | 61 | 264 | 1.0 | 6.0 | 0.00 | 0.21 | 0.18 | 39 | 1009.7 |
| 20260507171526 | 61 | 329 | 0.0 | 3.0 | 0.00 | 0.21 | 0.18 | 37 | 1009.8 |
| 20260507171007 | 61 | 299 | 0.0 | 4.0 | 0.00 | 0.21 | 0.18 | 38 | 1009.9 |
| 20260507170507 | 61 | 302 | 1.0 | 7.0 | 0.00 | 0.21 | 0.18 | 42 | 1010.1 |
| 20260507170024 | 61 | 302 | 2.0 | 7.0 | 0.00 | 0.21 | 0.18 | 40 | 1010.1 |
| 20260507165507 | 61 | 304 | 2.0 | 5.0 | 0.00 | 0.21 | 0.18 | 38 | 1010.1 |
| 20260507165006 | 60 | 298 | 1.0 | 3.0 | 0.00 | 0.21 | 0.18 | 44 | 1010.1 |
| 20260507164522 | 60 | 312 | 0.0 | 4.0 | 0.00 | 0.21 | 0.18 | 39 | 1010.1 |
| 20260507164007 | 60 | 291 | 0.0 | 4.0 | 0.00 | 0.21 | 0.18 | 42 | 1010.2 |
| 20260507163509 | 60 | 314 | 2.0 | 4.0 | 0.00 | 0.21 | 0.18 | 42 | 1010.4 |
| 20260507163028 | 60 | 268 | 2.0 | 4.0 | 0.00 | 0.21 | 0.18 | 40 | 1010.4 |
| 20260507162511 | 60 | 251 | 1.0 | 6.0 | 0.00 | 0.21 | 0.18 | 43 | 1010.5 |
| 20260507162006 | 60 | 277 | 1.0 | 6.0 | 0.00 | 0.21 | 0.18 | 43 | 1010.5 |
| 20260507161514 | 60 | 306 | 1.0 | 5.0 | 0.00 | 0.21 | 0.18 | 47 | 1010.5 |
| 20260507161004 | 59 | 335 | 1.0 | 5.0 | 0.00 | 0.21 | 0.18 | 41 | 1010.6 |
| 20260507160511 | 59 | 314 | 2.0 | 5.0 | 0.00 | 0.21 | 0.18 | 41 | 1010.7 |
| 20260507160028 | 59 | 297 | 2.0 | 4.0 | 0.00 | 0.21 | 0.18 | 42 | 1010.6 |
| 20260507155510 | 59 | 283 | 1.0 | 6.0 | 0.00 | 0.21 | 0.18 | 42 | 1010.8 |
| 20260507155007 | 59 | 267 | 1.0 | 6.0 | 0.00 | 0.21 | 0.18 | 48 | 1010.8 |
| 20260507154523 | 59 | 258 | 1.0 | 4.0 | 0.00 | 0.21 | 0.18 | 45 | 1011.1 |
| 20260507154012 | 59 | 313 | 2.0 | 5.0 | 0.00 | 0.21 | 0.18 | 48 | 1011.0 |
| 20260507153510 | 59 | 325 | 1.0 | 5.0 | 0.00 | 0.21 | 0.18 | 48 | 1011.0 |
| 20260507153027 | 59 | 302 | 1.0 | 5.0 | 0.00 | 0.21 | 0.18 | 51 | 1011.1 |
| 20260507152510 | 59 | 282 | 1.0 | 4.0 | 0.00 | 0.21 | 0.18 | 50 | 1011.3 |
| 20260507152008 | 59 | 303 | 2.0 | 4.0 | 0.00 | 0.21 | 0.18 | 50 | 1011.5 |
| 20260507151528 | 59 | 265 | 1.0 | 4.0 | 0.00 | 0.21 | 0.18 | 50 | 1011.5 |
| 20260507151010 | 58 | 260 | 0.0 | 4.0 | 0.00 | 0.21 | 0.18 | 54 | 1011.5 |
| 20260507150510 | 58 | 285 | 1.0 | 4.0 | 0.00 | 0.21 | 0.18 | 53 | 1011.5 |
| 20260507150018 | 58 | 299 | 1.0 | 4.0 | 0.00 | 0.21 | 0.18 | 51 | 1011.7 |
| 20260507145508 | 58 | 292 | 1.0 | 5.0 | 0.00 | 0.21 | 0.18 | 54 | 1011.7 |
| 20260507145009 | 57 | 300 | 0.0 | 5.0 | 0.00 | 0.21 | 0.18 | 51 | 1011.7 |
| 20260507144522 | 57 | 308 | 2.0 | 5.0 | 0.00 | 0.21 | 0.18 | 53 | 1011.8 |
| 20260507144007 | 57 | 292 | 2.0 | 8.0 | 0.00 | 0.21 | 0.18 | 55 | 1011.9 |
| 20260507143508 | 57 | 308 | 3.0 | 8.0 | 0.00 | 0.21 | 0.18 | 57 | 1011.9 |
| 20260507143038 | 57 | 295 | 2.0 | 5.0 | 0.00 | 0.21 | 0.18 | 62 | 1012.0 |
| 20260507142509 | 56 | 265 | 1.0 | 5.0 | 0.00 | 0.21 | 0.18 | 62 | 1012.1 |
| 20260507142011 | 56 | 214 | 1.0 | 4.0 | 0.00 | 0.21 | 0.18 | 64 | 1012.1 |
| 20260507141538 | 56 | 315 | 1.0 | 4.0 | 0.00 | 0.21 | 0.18 | 64 | 1012.1 |
| 20260507141008 | 56 | 256 | 2.0 | 6.0 | 0.00 | 0.21 | 0.18 | 65 | 1012.1 |
| 20260507140509 | 55 | 264 | 1.0 | 6.0 | 0.00 | 0.21 | 0.18 | 67 | 1012.1 |
| 20260507140030 | 55 | 276 | 0.0 | 4.0 | 0.00 | 0.21 | 0.18 | 75 | 1012.1 |
| 20260507135506 | 54 | 255 | 0.0 | 4.0 | 0.00 | 0.21 | 0.18 | 72 | 1012.0 |
| 20260507135007 | 54 | 261 | 1.0 | 4.0 | 0.00 | 0.21 | 0.18 | 74 | 1012.0 |
| 20260507134520 | 53 | 240 | 1.0 | 3.0 | 0.00 | 0.21 | 0.18 | 80 | 1011.9 |
| 20260507134007 | 53 | 296 | 0.0 | 4.0 | 0.00 | 0.21 | 0.18 | 83 | 1012.0 |
| 20260507133509 | 52 | 310 | 0.0 | 4.0 | 0.00 | 0.21 | 0.18 | 81 | 1011.9 |
| 20260507133024 | 52 | 219 | 1.0 | 4.0 | 0.00 | 0.21 | 0.18 | 81 | 1012.0 |
| 20260507132507 | 52 | 256 | 0.0 | 0.0 | 0.00 | 0.21 | 0.18 | 83 | 1012.0 |
| 20260507132010 | 51 | 268 | 0.0 | 4.0 | 0.00 | 0.21 | 0.18 | 84 | 1012.1 |
| 20260507131527 | 51 | 279 | 0.0 | 4.0 | 0.00 | 0.21 | 0.18 | 87 | 1011.9 |
| 20260507131004 | 51 | 307 | 1.0 | 4.0 | 0.00 | 0.21 | 0.18 | 88 | 1011.8 |
| 20260507130503 | 50 | 271 | 0.0 | 3.0 | 0.00 | 0.21 | 0.18 | 88 | 1011.9 |
| 20260507130029 | 50 | 293 | 0.0 | 3.0 | 0.00 | 0.21 | 0.18 | 89 | 1012.0 |
| 20260507125509 | 50 | 258 | 0.0 | 0.0 | 0.00 | 0.21 | 0.18 | 90 | 1011.9 |
| 20260507125007 | 50 | 258 | 0.0 | 0.0 | 0.00 | 0.21 | 0.18 | 91 | 1012.0 |
| 20260507124517 | 50 | 281 | 0.0 | 0.0 | 0.00 | 0.21 | 0.18 | 91 | 1012.1 |
| 20260507124008 | 50 | 281 | 0.0 | 1.0 | 0.00 | 0.21 | 0.18 | 91 | 1012.1 |
| 20260507123507 | 50 | 281 | 0.0 | 1.0 | 0.00 | 0.21 | 0.18 | 92 | 1012.2 |
| 20260507123022 | 50 | 309 | 0.0 | 1.0 | 0.00 | 0.21 | 0.18 | 93 | 1012.1 |
| 20260507122503 | 50 | 309 | 0.0 | 1.0 | 0.00 | 0.21 | 0.18 | 92 | 1012.0 |
| 20260507122003 | 50 | 282 | 0.0 | 0.0 | 0.00 | 0.21 | 0.18 | 93 | 1011.9 |
| 20260507121506 | 50 | 280 | 0.0 | 0.0 | 0.00 | 0.21 | 0.18 | 92 | 1012.0 |
| 20260507121003 | 50 | 280 | 0.0 | 0.0 | 0.00 | 0.21 | 0.18 | 93 | 1012.1 |
| 20260507120502 | 50 | 280 | 0.0 | 0.0 | 0.00 | 0.21 | 0.18 | 93 | 1012.1 |
| 20260507120012 | 50 | 280 | 0.0 | 0.0 | 0.00 | 0.21 | 0.18 | 93 | 1012.1 |
| 20260507115504 | 50 | 280 | 0.0 | 0.0 | 0.00 | 0.21 | 0.18 | 93 | 1011.9 |
| 20260507115008 | 50 | 280 | 0.0 | 0.0 | 0.00 | 0.21 | 0.18 | 93 | 1011.9 |
| 20260507114520 | 50 | 280 | 0.0 | 0.0 | 0.00 | 0.21 | 0.18 | 93 | 1011.8 |
| 20260507114007 | 50 | 280 | 0.0 | 0.0 | 0.00 | 0.21 | 0.18 | 93 | 1011.8 |
| 20260507113509 | 50 | 280 | 0.0 | 0.0 | 0.00 | 0.21 | 0.18 | 93 | 1011.8 |
| 20260507113023 | 49 | 280 | 0.0 | 0.0 | 0.00 | 0.21 | 0.18 | 93 | 1011.8 |
| 20260507112510 | 49 | 292 | 0.0 | 0.0 | 0.00 | 0.21 | 0.18 | 93 | 1011.4 |
| 20260507112009 | 49 | 292 | 0.0 | 0.0 | 0.00 | 0.21 | 0.18 | 93 | 1011.4 |
| 20260507111504 | 49 | 292 | 0.0 | 0.0 | 0.00 | 0.21 | 0.18 | 93 | 1011.2 |
| 20260507111004 | 49 | 292 | 0.0 | 0.0 | 0.00 | 0.21 | 0.18 | 93 | 1011.0 |
| 20260507110504 | 49 | 292 | 0.0 | 0.0 | 0.00 | 0.21 | 0.18 | 93 | 1011.0 |
| 20260507110010 | 49 | 292 | 0.0 | 0.0 | 0.00 | 0.21 | 0.18 | 93 | 1011.0 |
| 20260507105504 | 49 | 292 | 0.0 | 0.0 | 0.00 | 0.21 | 0.18 | 93 | 1010.8 |
| 20260507105003 | 49 | 292 | 0.0 | 0.0 | 0.00 | 0.21 | 0.18 | 93 | 1010.8 |
| 20260507104512 | 49 | 292 | 0.0 | 0.0 | 0.00 | 0.21 | 0.18 | 93 | 1010.8 |
| 20260507104008 | 49 | 292 | 0.0 | 0.0 | 0.00 | 0.21 | 0.18 | 93 | 1010.8 |
| 20260507103507 | 49 | 292 | 0.0 | 0.0 | 0.00 | 0.21 | 0.18 | 93 | 1010.7 |
| 20260507103017 | 49 | 292 | 0.0 | 0.0 | 0.00 | 0.21 | 0.18 | 93 | 1010.6 |
| 20260507102507 | 49 | 292 | 0.0 | 0.0 | 0.00 | 0.21 | 0.18 | 93 | 1010.6 |
| 20260507102007 | 49 | 292 | 0.0 | 0.0 | 0.00 | 0.21 | 0.18 | 93 | 1010.5 |
| 20260507101522 | 49 | 292 | 0.0 | 0.0 | 0.00 | 0.21 | 0.18 | 93 | 1010.5 |
| 20260507101009 | 49 | 292 | 0.0 | 0.0 | 0.00 | 0.21 | 0.18 | 93 | 1010.5 |
| 20260507100507 | 49 | 292 | 0.0 | 0.0 | 0.00 | 0.21 | 0.18 | 93 | 1010.5 |
| 20260507100007 | 49 | 292 | 0.0 | 0.0 | 0.00 | 0.21 | 0.18 | 93 | 1010.4 |
| 20260507095504 | 49 | 292 | 0.0 | 0.0 | 0.00 | 0.21 | 0.18 | 93 | 1010.4 |
| 20260507095003 | 49 | 292 | 0.0 | 0.0 | 0.00 | 0.21 | 0.18 | 93 | 1010.3 |